Find Starlink 36350

NORAD ID: 67572 Int'l Des: 2026-016 Owner: SPXS Country: US Constellation: starlink operational
LEOCIRCULARRETROGRADE

現在のビュー

3D地球を読み込み中...

Starlink 36350について

説明を読み込み中...

次回通過

Passes for default location (London). Set your location on the main map for personalized predictions.

高度履歴

Loading altitude history...

軌道要素

1 67572U 26016M 26146.59823390 .00021985 00000-0 68101-3 0 9994
2 67572 97.2863 206.9057 0000207 48.6040 311.5220 15.33459901 18805
Epoch: May 26, 2026 • Age: 6 hours

現在のステータス

高度 468.2 km
速度 7.63 km/s
衛星直下点 22.39°N, 8.94°E
打ち上げ日 Jan 25, 2026
運用期間 0.3 years
タイプ internet

技術仕様

分類 Payload
質量 575.00 kg
乾燥質量 530.00 kg
総質量 575.00 kg
長さ 0.30 m
直径 4.10 m
スパン 29.00 m
形状 Box + pan
製造者 SPXS
バスタイプ Starlink V2MO
フェーズステータス In Orbit
所有者/国 SPXS/US

Most Searched